Theta_e
297 296 296 297 297 297 297 297 298 298 299 299 300 300 300 301 300 300 300 299 298 298 298 298 298 298 299 299 299 299 299 300 300 300 300 301 301 301 301 300 299 298 298 296 295 294 294 294 294 294 295 295 296 296 296 296 296 296 296 296 296 295 295 295 294 294 294 293 293 293 292 291 291 291 290 290 290 291 291 291 291 291 291 290 291
295 295 295 296 296 296 297 297 297 297 297 298 298 299 299 300 300 300 300 300 300 299 298 297 297 298 298 298 298 298 298 299 299 299 300 300 300 301 301 301 301 299 298 297 296 294 293 293 294 294 294 295 295 295 296 296 296 296 296 296 295 295 295 295 294 294 294 293 292 292 291 291 291 290 290 290 290 290 290 291 291 291 290 290 290
294 294 295 295 295 295 296 297 297 297 297 297 297 297 298 298 299 300 300 300 300 300 299 298 297 297 297 297 297 297 298 298 298 298 299 299 300 300 301 301 301 300 300 299 297 295 293 293 293 294 294 294 295 295 295 295 295 295 296 296 295 295 295 295 294 294 294 293 292 292 291 291 290 289 289 289 290 290 290 290 290 290 290 290 290
293 293 293 294 294 295 295 295 296 296 296 296 296 296 296 297 298 298 299 299 299 300 300 300 299 298 296 296 296 296 297 297 297 298 298 299 299 299 300 300 300 301 301 300 299 297 295 293 293 293 293 294 294 294 295 295 295 295 295 295 295 295 295 295 295 294 294 293 292 291 291 290 290 289 289 289 289 289 290 290 290 290 289 290 290
292 292 292 292 293 293 294 294 294 294 295 295 296 295 295 295 296 296 297 298 298 298 299 299 299 299 298 297 296 295 296 296 297 297 298 298 298 298 299 299 299 300 300 300 300 299 297 296 294 293 293 293 294 294 294 295 295 295 295 295 295 295 295 295 294 294 293 292 292 291 291 290 289 289 289 289 289 289 289 289 289 289 289 289 290
290 290 291 291 291 291 292 292 292 293 293 293 294 295 295 295 294 295 295 296 297 297 298 298 298 298 298 298 297 296 295 295 295 296 296 296 297 297 297 298 299 299 299 299 300 300 299 298 296 294 293 293 293 294 294 294 294 294 295 295 295 295 294 294 294 293 292 292 291 291 291 290 289 288 288 288 289 289 289 289 289 289 289 289 289
289 289 289 289 289 289 289 290 290 291 291 291 292 292 293 294 294 294 294 294 295 296 296 297 297 297 296 297 297 297 296 295 294 294 295 295 295 296 296 297 297 298 298 298 299 299 299 299 298 296 294 293 293 293 293 293 294 294 294 295 295 294 294 294 294 293 292 291 291 291 290 289 289 288 288 288 288 288 288 289 289 289 289 289 289
289 289 289 289 288 288 288 288 288 289 289 290 290 290 291 292 293 294 294 294 294 294 295 296 296 296 296 295 295 295 295 295 295 294 293 294 294 294 295 295 296 296 297 297 298 298 298 298 298 298 297 295 293 293 293 293 293 294 294 294 294 294 294 294 293 293 292 291 291 290 290 289 288 288 288 288 288 288 289 289 289 289 289 290 290
288 288 288 288 288 288 288 287 287 287 287 288 289 289 289 290 291 292 293 293 293 294 294 295 295 296 296 295 294 294 293 294 294 294 293 293 293 294 294 294 295 295 295 296 297 297 297 297 297 298 298 296 294 292 292 292 292 293 293 294 294 294 294 293 293 293 292 291 291 290 290 289 289 288 288 288 288 288 289 289 289 289 290 290 290
287 287 287 287 287 287 287 287 287 286 286 286 287 287 288 288 289 289 290 292 292 293 293 294 294 295 295 295 295 294 293 293 292 292 292 292 292 293 293 293 294 294 294 295 295 296 296 297 297 297 296 296 294 292 291 291 291 292 293 293 294 294 293 293 293 293 293 292 291 291 290 290 290 290 289 289 288 288 289 289 289 289 290 290 290
287 286 286 286 286 286 286 286 286 286 286 286 286 286 286 287 287 287 288 289 290 291 292 292 293 294 294 295 295 295 295 294 292 291 291 291 291 292 292 292 293 293 293 294 295 295 296 296 296 296 295 295 294 292 291 290 290 291 291 292 293 293 293 293 293 293 293 292 292 291 291 291 291 290 289 288 288 288 288 289 289 289 290 290 290
286 286 286 286 286 286 286 286 286 286 286 285 285 285 285 286 286 286 286 287 287 288 289 290 291 292 293 294 294 295 295 294 292 291 291 291 291 291 291 291 292 292 292 293 294 294 295 295 296 296 295 294 293 292 291 290 289 290 290 291 291 292 293 293 293 293 293 292 292 292 292 292 291 291 290 289 288 288 288 289 289 289 290 290 290
286 286 286 286 286 286 286 286 286 286 285 285 285 285 285 285 285 285 286 286 286 286 286 287 288 289 290 292 293 294 295 295 293 291 290 290 290 290 290 291 291 291 292 292 293 293 294 294 295 295 295 294 293 292 291 290 289 289 289 289 290 291 291 291 292 292 292 292 292 292 292 292 292 291 290 289 289 288 289 289 289 289 290 290 289
286 286 286 286 286 286 286 286 286 286 286 286 285 285 285 285 285 285 285 285 285 286 286 286 286 286 287 288 290 292 294 294 294 292 291 290 290 290 290 290 290 291 291 291 292 292 293 293 294 294 295 294 293 292 292 291 290 289 288 289 289 290 290 290 290 290 290 290 290 290 291 291 290 290 290 289 289 288 288 289 289 289 289 288 287
286 286 286 286 286 286 286 286 286 286 285 286 285 286 286 286 285 285 285 285 285 285 285 285 285 285 286 286 287 289 291 293 294 293 291 290 289 289 289 289 290 290 290 290 291 291 292 292 293 293 293 293 293 293 292 292 291 289 289 289 289 289 289 289 289 289 289 288 288 287 288 288 288 288 289 288 288 288 288 288 288 288 287 287 286
285 285 285 285 285 285 285 285 285 285 285 285 285 285 285 286 286 286 285 285 285 285 285 285 285 285 285 285 285 286 288 291 292 293 292 290 289 289 289 289 289 289 290 290 290 290 291 291 291 292 292 292 292 292 291 291 290 289 289 289 288 288 289 289 289 288 288 287 286 286 287 287 287 287 287 287 287 287 287 287 287 287 287 286 286
285 285 284 284 284 284 284 285 285 285 285 285 285 285 285 285 285 286 285 286 286 285 285 285 285 285 285 285 285 285 286 287 289 292 293 291 289 288 288 288 288 289 289 289 290 290 290 290 290 291 291 291 291 291 290 290 289 288 288 288 288 288 288 288 288 287 287 286 286 286 286 286 286 286 286 286 286 286 287 287 287 286 286 285 285
284 284 284 284 283 284 284 284 284 284 284 284 284 284 284 285 285 285 285 285 285 285 285 285 285 285 285 285 285 285 285 285 286 289 292 292 290 288 288 288 288 288 289 289 289 289 289 289 289 290 290 290 290 290 289 289 289 288 287 287 287 287 287 288 287 286 286 285 285 285 285 284 284 285 285 285 285 286 286 286 285 285 284 284 284
283 283 283 283 283 283 283 283 283 283 283 284 284 284 284 284 284 284 284 285 285 285 285 285 286 286 286 285 285 285 285 285 285 286 289 291 291 289 287 287 287 288 288 288 288 288 289 289 289 289 289 289 289 289 288 288 288 287 287 286 286 287 287 287 286 286 285 285 285 285 284 283 284 285 285 284 285 285 285 285 284 283 283 283 283
282 282 282 282 282 282 282 282 283 283 283 283 283 283 283 284 284 284 284 284 284 285 285 285 285 286 286 286 286 285 285 285 285 285 286 289 291 291 288 287 287 287 288 288 288 288 288 288 288 288 288 288 288 288 287 287 287 286 286 286 286 287 286 286 286 286 286 286 286 285 284 284 284 285 284 283 284 285 285 285 283 282 282 282 282
280 280 280 281 281 281 281 282 282 282 282 282 282 283 283 283 283 283 284 284 284 284 285 285 285 285 286 286 286 286 285 285 285 285 284 286 289 291 290 288 287 287 287 287 287 288 288 288 288 288 288 287 287 287 287 286 286 285 285 286 286 286 286 285 285 285 285 286 285 284 283 284 284 284 284 284 284 285 285 284 282 281 280 280 280
279 279 279 279 280 280 280 280 281 281 281 281 281 281 282 283 283 283 283 283 284 284 284 284 285 285 285 285 285 286 286 285 285 285 284 285 287 290 291 289 288 287 287 287 287 287 287 287 288 288 288 288 288 287 287 286 285 285 285 285 285 285 284 284 285 285 285 285 284 284 284 284 285 284 284 284 284 284 283 282 281 280 279 279 279
277 277 277 278 278 278 278 278 278 278 278 278 277 278 280 281 281 282 282 282 282 283 283 284 284 284 285 285 285 285 285 286 285 285 284 284 285 288 291 291 289 287 286 287 287 287 287 287 287 287 287 288 288 287 287 286 285 284 285 284 284 284 284 284 284 284 284 284 283 283 284 285 285 285 284 284 284 283 281 280 279 278 278 278 279
275 275 276 276 276 276 275 275 275 275 275 275 274 275 277 277 278 279 280 280 280 281 282 283 283 283 284 284 285 285 285 285 285 285 284 284 284 286 289 291 290 287 286 287 287 287 287 287 287 287 287 287 287 287 286 285 284 284 284 284 283 283 283 283 283 283 283 283 283 283 284 285 285 285 285 284 283 281 280 279 278 278 277 278 279
273 274 274 273 273 273 272 272 272 272 272 271 271 272 273 274 274 276 276 277 278 279 280 281 282 282 283 283 284 284 284 284 285 285 284 284 284 285 287 290 290 288 287 286 286 286 286 287 287 287 287 286 286 285 285 284 284 284 283 283 283 283 282 282 282 282 282 283 283 284 285 285 285 285 284 283 281 280 279 278 278 277 277 278 278
272 272 272 271 271 270 270 270 270 269 269 269 269 269 270 271 271 272 273 274 275 276 277 278 279 280 281 282 283 284 284 284 284 284 284 284 284 284 286 289 290 289 287 286 286 286 286 286 286 286 286 286 285 284 284 284 284 284 283 283 283 282 282 282 282 282 282 283 284 285 285 285 285 284 283 282 280 279 279 278 277 277 277 277 277
270 270 270 269 268 268 267 267 267 267 267 267 267 268 268 268 268 269 269 270 271 272 273 275 276 277 278 280 282 283 283 283 283 284 284 284 284 284 285 288 290 289 287 286 286 286 286 286 286 286 286 285 285 284 284 284 283 283 283 283 283 283 282 282 282 282 283 284 285 285 284 284 284 283 282 280 280 279 278 277 276 276 277 277 277
266 266 265 265 265 265 264 264 265 265 265 265 266 266 266 266 266 267 268 268 269 270 271 272 274 275 276 278 279 280 281 282 283 284 284 284 284 284 284 287 289 289 287 286 286 286 286 286 286 286 285 285 284 283 283 283 283 283 283 283 282 282 282 282 282 282 283 284 284 284 284 284 283 281 280 280 279 278 277 276 276 276 276 276 276
263 263 263 262 262 262 262 263 263 263 263 264 264 264 265 265 266 267 268 269 269 270 271 272 273 274 275 276 278 278 279 281 283 283 283 283 284 284 284 287 288 288 287 286 285 285 286 285 285 285 285 284 283 282 282 282 282 283 282 282 282 282 281 280 281 281 282 282 283 283 283 283 281 280 280 279 278 277 276 276 276 276 276 276 276
262 261 261 261 262 262 262 262 262 262 262 262 263 263 264 264 265 265 267 268 269 269 270 271 272 274 274 275 277 278 279 280 281 282 282 282 283 283 284 286 288 287 286 285 285 285 285 285 285 285 284 283 282 282 281 281 282 282 282 281 281 281 280 280 280 281 281 282 282 282 282 281 280 280 279 278 277 276 276 275 275 275 275 275 276
261 261 261 261 261 261 262 262 262 262 262 262 262 262 263 263 263 264 265 267 268 269 270 271 272 273 274 275 277 278 278 279 280 281 281 282 283 283 284 286 287 286 285 284 284 284 284 284 284 284 284 283 282 282 281 281 281 282 281 280 281 281 281 280 280 281 281 282 281 281 280 280 280 279 278 277 276 276 275 275 275 275 275 275 276
261 261 261 261 261 261 261 261 262 262 262 262 262 262 263 263 263 264 265 266 268 269 271 272 273 274 275 275 276 277 278 279 280 281 281 282 282 282 283 284 285 285 285 284 284 284 284 284 284 284 284 283 283 282 281 281 281 282 282 281 280 280 281 280 281 281 282 281 280 279 279 279 279 278 277 276 276 276 276 276 276 276 276 275 276
261 261 261 261 261 261 261 261 261 262 262 262 262 263 263 263 263 264 265 266 266 267 269 270 272 273 274 275 276 277 278 279 280 281 282 282 282 282 282 283 284 284 284 284 284 283 284 284 284 284 284 283 282 281 281 281 281 282 282 281 281 280 280 281 281 281 281 280 280 279 279 279 278 277 276 276 276 276 276 276 276 275 275 275 275
262 262 261 261 261 261 261 261 261 262 262 262 262 262 263 263 263 263 264 264 264 265 266 268 269 271 272 274 275 276 277 278 280 281 282 282 282 282 282 282 283 284 284 284 283 283 283 283 283 283 283 282 281 281 281 281 281 281 282 281 281 280 280 281 281 281 280 280 279 279 278 278 277 276 276 276 276 276 276 275 275 275 275 275 275
263 262 262 261 261 261 261 261 261 261 262 262 262 262 262 262 263 263 263 263 263 264 265 267 269 270 271 273 274 276 277 277 279 280 282 283 283 283 283 283 283 283 283 284 283 283 283 283 283 282 282 281 281 281 281 281 280 281 281 281 280 280 280 281 281 280 280 279 278 277 277 276 276 276 276 276 276 276 275 275 275 275 275 275 275
263 262 262 262 262 261 261 262 261 261 261 262 262 262 262 262 262 262 263 263 264 264 265 267 269 270 271 272 274 276 278 278 279 280 282 283 283 283 283 283 282 282 283 283 283 283 283 283 283 282 281 281 281 281 281 281 280 280 280 281 281 280 280 281 281 280 279 279 278 277 276 276 276 276 276 276 276 275 275 275 275 275 275 275 275
263 263 263 263 263 262 262 262 262 262 262 262 262 262 262 263 263 263 264 264 265 265 266 267 268 269 270 272 275 277 278 279 279 280 281 283 283 283 283 282 282 282 282 283 283 283 282 282 282 281 280 281 281 281 281 280 280 280 280 280 281 281 281 281 281 280 280 279 278 277 276 276 276 276 276 276 276 275 275 275 275 275 275 274 274
264 264 264 264 263 262 262 262 262 262 262 262 262 263 263 263 264 264 264 265 265 266 266 267 268 269 270 272 275 277 278 279 279 280 281 282 283 283 282 282 282 282 282 283 283 283 282 281 281 281 281 280 281 281 281 280 279 279 279 280 280 280 280 280 280 280 279 279 277 277 276 276 276 276 276 276 275 275 275 275 274 274 274 274 274
264 264 265 264 264 263 263 263 263 263 263 263 263 263 263 263 264 264 264 265 265 266 267 267 268 269 271 273 274 276 278 279 279 280 281 282 283 283 282 282 282 282 282 282 283 283 282 281 281 281 281 280 280 280 281 280 280 279 279 280 280 279 279 279 279 279 278 278 277 276 276 276 276 276 275 275 274 274 274 274 274 274 274 274 274
264 264 265 265 265 264 264 264 264 264 264 264 264 263 264 264 264 264 265 265 266 267 267 268 269 270 272 273 275 276 277 278 278 279 280 282 282 282 282 282 282 282 282 282 283 283 282 281 280 281 281 280 280 280 281 281 280 280 279 279 279 279 279 279 278 278 278 277 276 276 276 276 275 275 274 274 274 274 274 274 274 274 274 274 274
264 264 265 266 266 265 265 265 265 265 265 265 265 265 265 265 265 265 265 266 266 267 268 269 270 271 272 274 275 276 277 278 278 279 280 281 282 282 282 282 281 281 282 282 282 282 281 281 280 280 280 280 280 280 280 281 280 280 279 279 279 279 279 278 278 277 277 276 276 275 275 275 275 274 274 274 274 274 274 274 273 273 273 273 273
265 265 265 265 266 266 266 266 267 267 267 267 267 267 266 266 266 266 266 266 267 268 269 270 271 272 273 274 276 276 277 278 278 278 279 280 281 282 282 281 281 281 281 282 282 281 281 280 280 280 280 281 281 280 280 280 280 280 279 278 278 278 278 277 277 276 276 275 275 275 275 274 274 274 274 273 273 273 273 273 273 273 273 273 273
265 265 265 265 266 266 266 266 267 268 268 268 268 268 268 268 268 268 268 268 268 269 269 270 272 273 273 274 275 276 277 277 278 279 279 279 280 281 281 281 281 281 281 281 281 281 281 280 280 280 281 281 281 281 281 281 281 280 278 278 278 278 277 277 276 275 275 275 275 274 274 274 274 273 273 273 273 273 273 272 272 272 272 272 272
265 266 266 266 267 267 267 266 267 268 269 269 270 270 269 269 269 269 269 269 270 270 271 271 272 273 274 274 275 276 276 277 278 279 279 279 280 281 281 281 281 280 280 281 281 281 281 280 280 281 281 281 281 281 280 280 280 279 278 278 277 277 276 276 276 275 275 275 274 274 274 273 273 273 273 273 273 272 272 272 272 272 272 271 271
266 266 267 267 267 268 268 268 267 268 269 270 270 270 271 271 271 271 271 271 271 272 273 273 273 274 274 275 275 275 276 276 277 278 279 279 280 280 280 280 280 280 280 280 280 280 280 281 281 281 281 280 280 280 279 278 278 278 278 277 277 276 276 276 275 275 275 274 274 274 274 273 273 273 273 272 272 272 272 271 271 271 271 271 271
266 266 267 267 267 268 269 269 269 269 269 270 270 271 271 271 271 272 272 272 272 273 273 273 274 274 274 275 275 275 276 276 277 278 279 279 280 280 280 280 280 280 280 280 280 280 280 280 280 280 280 280 280 279 278 277 276 275 275 275 275 275 275 275 274 274 274 273 273 273 273 273 273 272 272 272 271 271 271 271 271 271 271 270 271
267 267 267 267 268 268 269 269 269 270 270 270 270 271 271 271 272 272 272 273 273 273 274 274 274 274 275 275 275 276 276 277 277 278 278 279 279 279 279 279 279 279 279 279 280 280 280 279 279 279 279 279 279 278 276 275 274 274 274 274 274 274 274 274 273 273 273 273 273 273 273 272 272 272 272 271 271 271 271 270 270 270 270 270 270
268 268 268 268 268 269 269 269 270 270 270 270 270 271 271 272 272 272 273 273 273 273 274 274 274 274 275 275 275 276 276 277 277 278 278 278 279 279 279 279 279 279 279 279 279 278 278 278 278 278 278 278 277 276 275 274 273 273 273 273 273 273 273 273 273 273 273 273 273 272 272 272 272 271 271 271 271 270 270 270 270 270 270 269 269
268 268 268 268 269 269 269 269 269 270 270 270 270 270 271 271 272 272 272 272 273 273 273 274 274 274 274 275 275 275 276 276 277 277 278 278 278 278 277 278 278 278 278 277 277 277 277 277 277 277 277 276 275 275 274 274 273 273 273 273 273 273 273 273 273 273 273 272 272 272 272 272 271 271 271 271 270 270 270 270 269 269 269 268 268
269 269 269 269 269 269 269 269 269 270 270 270 270 270 270 271 271 272 272 272 272 273 273 273 273 274 274 274 275 275 276 276 276 277 277 277 277 276 276 276 276 276 276 276 276 276 276 275 275 275 275 274 274 273 273 273 273 273 273 273 273 273 273 273 272 272 272 272 272 272 272 271 271 271 271 270 270 269 269 269 269 268 268 268 267
269 269 269 269 269 270 270 270 270 270 270 270 270 270 270 271 271 271 272 272 273 273 273 273 273 273 273 274 274 274 275 275 276 276 276 276 276 275 275 275 275 275 275 275 275 274 274 273 273 273 273 273 273 273 273 273 273 273 272 272 272 272 272 272 272 272 272 272 272 271 271 271 271 271 270 270 269 269 268 268 268 268 267 267 267
Wind_Speed
27 27 26 26 26 27 27 28 28 28 28 28 27 26 23 21 21 22 23 24 23 24 26 28 30 31 33 34 36 37 38 38 39 40 42 44 45 47 50 52 54 56 56 57 57 58 58 58 57 56 54 53 51 50 48 46 43 41 40 38 36 35 33 31 29 29 27 26 27 26 26 29 29 27 25 23 21 19 17 15 12 11 10 10 11
28 28 28 28 28 27 27 28 29 29 29 29 29 29 28 26 24 23 23 23 23 24 24 25 27 29 32 34 35 36 38 39 40 41 43 44 45 46 47 49 52 55 58 58 58 58 59 59 59 58 56 55 54 53 51 49 46 45 43 41 39 37 35 32 31 32 30 28 28 28 28 30 30 28 26 24 23 21 18 16 14 12 11 11 12
28 28 28 29 29 29 28 28 28 29 29 30 29 29 29 28 27 26 25 23 23 24 25 25 25 27 30 33 35 36 37 38 40 41 42 43 45 46 47 48 49 52 56 59 59 59 59 60 60 60 58 58 57 56 54 52 50 47 45 43 41 40 37 34 34 34 32 30 29 29 29 30 30 29 27 25 23 21 19 17 15 13 12 12 13
30 29 28 28 28 29 29 29 29 28 29 29 29 29 29 28 28 28 27 26 24 24 24 25 26 27 29 31 33 35 37 38 39 40 41 43 44 46 47 49 50 51 52 55 58 59 59 60 61 61 60 60 60 59 57 55 52 50 48 46 44 42 39 37 36 36 33 31 30 30 30 30 30 29 28 26 24 21 20 18 15 14 13 13 14
31 31 30 30 29 29 29 29 29 29 29 29 29 29 30 29 28 28 28 28 27 26 24 24 25 28 29 30 31 33 35 37 38 39 40 42 44 46 48 49 51 52 52 52 53 56 59 61 61 61 61 62 63 62 61 58 55 53 51 48 46 44 42 39 38 38 36 34 32 31 31 31 30 30 28 26 24 22 20 19 17 15 14 14 14
33 33 33 32 31 30 29 29 29 29 29 29 29 29 30 30 30 29 28 29 29 28 28 26 24 25 27 29 30 31 33 35 37 39 40 42 43 45 48 49 51 53 54 53 52 53 55 58 61 62 63 64 65 65 63 61 59 56 54 52 49 47 44 42 40 40 39 37 34 33 32 32 32 31 28 26 24 23 22 21 19 17 16 15 15
34 35 35 35 34 33 31 30 29 29 29 30 29 29 29 29 30 30 29 29 29 29 29 29 27 26 26 26 27 29 31 33 36 38 40 42 44 45 48 50 51 53 54 55 55 54 54 55 58 60 63 65 66 66 65 63 61 59 57 54 52 49 47 45 43 42 41 40 38 36 34 33 33 31 29 27 26 25 24 22 21 19 17 16 17
32 34 35 36 36 36 35 33 31 30 30 30 30 29 29 28 29 29 30 30 30 30 30 30 30 29 28 27 27 27 29 32 34 36 39 41 43 45 48 49 51 53 55 55 56 56 56 56 56 58 61 64 65 65 65 65 63 61 59 56 53 51 49 48 46 45 44 43 41 39 37 36 34 33 32 30 29 29 27 24 23 21 19 18 20
29 30 31 32 34 35 36 36 34 33 32 31 31 31 31 30 29 29 29 30 30 30 30 30 30 31 30 30 29 28 28 30 32 34 37 39 41 44 46 47 49 52 55 56 57 57 57 57 57 57 59 62 63 64 65 66 65 63 61 58 56 54 52 50 49 48 46 45 44 42 40 38 36 35 34 33 32 31 29 27 25 23 20 19 21
28 29 30 31 31 32 34 36 36 36 35 34 33 32 32 32 32 31 29 29 29 30 30 30 30 30 31 31 31 30 30 31 32 32 34 37 39 42 45 46 48 51 55 57 57 57 57 57 58 57 59 60 62 64 66 66 66 65 63 61 59 57 55 53 51 50 49 48 47 44 42 39 37 36 36 35 34 33 31 28 27 25 22 21 23
27 28 29 31 31 32 33 34 35 36 37 36 36 35 34 33 33 33 32 31 30 30 31 31 31 31 31 32 32 32 32 32 32 32 32 34 37 40 43 45 47 50 53 55 56 56 56 58 58 58 59 61 63 64 66 66 66 64 63 62 61 59 57 56 54 52 50 49 47 45 43 40 37 35 36 36 35 34 31 29 28 26 25 23 23
27 27 28 30 31 32 33 34 35 36 37 38 38 37 36 35 35 34 34 34 33 32 32 32 33 33 33 33 33 34 34 32 31 32 32 33 35 37 40 44 46 49 52 53 54 55 56 58 59 59 59 61 63 64 65 66 65 65 64 63 61 59 58 57 55 53 51 50 49 46 43 39 37 36 36 36 36 34 32 30 29 27 26 24 23
29 30 30 31 32 33 34 35 35 36 38 39 40 40 39 38 38 37 37 36 36 35 34 34 34 35 35 35 35 35 35 33 31 32 32 33 34 36 38 41 45 48 50 52 52 53 54 56 57 59 59 60 63 65 65 65 65 65 64 63 62 61 59 58 56 54 51 49 48 47 43 39 38 37 36 36 35 35 33 32 30 29 27 24 23
33 33 34 34 35 36 37 37 37 37 38 40 41 42 42 42 41 40 40 40 39 38 37 36 36 36 36 37 37 37 36 35 34 33 33 32 33 35 37 39 42 45 49 51 51 52 54 55 56 57 59 60 62 64 65 65 65 65 65 64 64 63 61 60 58 56 52 48 44 43 41 39 38 37 36 35 35 34 33 32 31 29 26 25 24
36 36 37 37 38 38 39 40 40 39 39 39 41 43 44 45 44 43 43 43 42 42 41 40 39 38 38 38 39 39 38 36 36 35 34 33 33 34 37 39 41 44 47 50 52 53 54 55 56 57 59 61 62 62 63 64 64 64 65 66 65 65 64 62 60 57 54 48 42 38 38 38 38 37 36 35 34 34 33 32 31 29 27 26 26
41 40 40 41 40 40 40 41 42 41 40 40 40 42 43 45 46 46 46 45 44 44 44 43 42 42 41 40 41 41 40 37 36 37 35 33 33 34 37 40 42 44 45 48 51 53 54 54 56 58 60 61 62 62 62 62 62 63 65 65 66 65 65 63 60 56 52 48 44 42 41 40 39 39 38 37 36 35 34 33 32 30 28 27 26
44 44 44 44 44 44 43 43 43 43 42 42 41 42 43 44 46 47 48 49 48 47 46 45 45 45 44 43 42 43 42 39 36 37 37 34 33 35 38 40 43 45 45 45 47 50 53 54 55 58 59 60 61 61 59 58 59 61 63 64 65 65 65 63 59 55 51 48 46 45 44 42 40 40 38 37 36 35 36 35 33 31 28 27 26
46 46 47 47 47 47 47 46 46 46 45 45 44 43 44 45 45 46 48 50 51 52 51 49 48 47 47 46 44 44 44 41 38 37 37 35 34 35 38 40 43 44 45 45 46 48 50 52 55 57 59 59 59 58 57 57 58 60 62 63 64 65 65 64 60 56 52 49 47 46 44 42 40 38 37 36 36 36 36 34 32 29 28 27 26
49 49 49 49 49 49 49 49 49 49 49 48 48 47 47 47 46 47 48 50 51 53 54 55 54 52 50 49 48 46 45 44 41 38 37 36 35 35 37 41 44 45 44 45 46 47 48 50 53 57 58 57 57 56 56 56 57 58 60 62 63 65 65 64 61 58 55 52 49 47 45 42 39 38 36 34 35 36 36 34 32 29 28 27 26
51 52 52 52 52 52 52 52 52 52 52 53 52 52 51 50 49 49 49 50 51 52 54 56 58 57 54 52 51 49 47 45 43 40 38 37 36 35 36 41 45 46 45 44 46 47 48 49 51 54 56 55 53 53 53 54 55 56 58 61 63 63 63 62 61 59 56 53 51 49 46 43 40 39 36 34 36 39 38 34 32 29 27 27 26
53 54 55 55 55 55 55 55 55 55 56 56 56 56 55 54 53 52 52 52 52 53 54 55 58 60 59 56 54 52 50 48 45 42 40 39 37 35 36 41 45 46 45 45 46 47 49 50 50 50 51 52 51 51 51 51 52 54 56 58 60 59 59 60 60 58 55 53 52 49 47 44 42 40 38 37 40 41 37 32 30 28 27 26 25
54 55 56 58 58 58 58 58 58 59 59 58 58 59 59 58 57 57 56 55 55 55 55 56 57 60 61 61 58 55 52 49 48 45 42 40 39 37 37 40 43 44 45 47 48 48 49 51 50 47 46 47 49 50 50 50 50 52 54 54 56 57 57 58 58 57 57 55 52 50 47 44 42 40 39 40 41 39 35 32 30 28 26 25 25
56 57 59 60 60 60 59 59 59 60 60 60 60 61 62 62 61 60 59 59 59 58 58 58 59 60 61 62 62 60 56 52 49 47 44 41 40 39 38 39 39 41 45 48 49 49 48 48 48 46 43 42 44 47 48 48 49 51 52 52 53 55 56 56 56 57 57 56 53 50 46 44 42 41 41 41 40 36 34 32 30 27 26 26 25
57 59 60 61 62 62 61 61 62 62 62 61 61 63 64 64 63 63 62 62 62 62 61 61 61 62 63 63 63 62 61 56 52 49 47 43 41 40 39 38 38 39 43 48 50 50 48 44 42 42 42 41 41 42 44 46 47 48 50 50 50 52 55 56 57 57 56 56 54 50 46 44 42 41 40 40 37 34 33 32 29 27 27 26 25
60 62 63 63 64 64 63 63 63 63 63 62 62 64 66 66 66 66 65 63 63 63 63 62 61 62 63 64 64 63 63 60 55 51 49 46 43 41 40 39 37 37 41 46 50 50 49 44 37 35 36 38 39 38 40 43 44 44 47 48 48 52 56 58 58 58 57 56 53 49 46 43 41 40 40 38 35 34 33 32 30 29 28 26 24
63 66 67 67 67 66 65 66 66 66 66 65 64 66 66 65 65 64 62 61 61 61 61 61 61 61 62 64 64 63 63 62 58 53 50 48 46 42 40 39 38 36 38 43 48 49 47 43 38 35 34 35 36 37 39 40 40 41 45 47 48 53 57 59 59 59 58 54 50 46 44 41 40 40 40 37 35 36 34 32 30 29 27 24 23
63 65 66 67 67 65 65 65 65 65 65 64 62 63 61 59 57 57 56 56 56 57 57 57 56 57 59 62 63 62 62 61 59 55 51 50 48 44 39 39 38 37 37 40 45 49 48 43 40 37 34 34 34 36 38 39 40 44 47 48 49 52 56 57 59 59 55 51 47 44 42 41 41 41 39 37 37 37 34 31 29 27 25 23 22
56 58 59 59 60 59 58 58 58 58 58 57 56 57 56 54 53 54 54 53 53 54 55 54 52 51 53 55 57 58 59 60 60 57 53 49 47 44 40 38 38 37 37 38 42 46 47 45 42 39 36 35 34 36 38 39 41 47 49 48 48 51 53 54 56 54 51 49 47 45 43 43 43 41 38 38 38 35 32 30 28 26 24 23 21
51 52 52 52 52 51 49 49 50 50 51 52 53 53 54 52 52 53 55 53 51 50 51 52 53 51 48 47 48 50 55 59 60 56 52 49 46 43 39 36 34 34 34 35 40 44 45 45 44 42 40 38 37 38 40 39 41 46 48 47 48 51 51 52 52 50 49 48 46 45 44 43 41 38 38 38 36 33 30 28 26 24 23 21 20
49 49 47 45 44 43 42 43 44 43 44 45 48 51 53 51 48 49 51 49 45 42 42 45 48 47 44 44 44 44 49 55 54 48 46 45 44 43 40 34 30 29 30 32 39 45 46 45 45 44 42 41 41 42 43 42 44 46 47 47 49 51 50 49 49 48 48 46 45 44 43 41 38 38 38 37 34 31 29 26 24 22 22 21 20
47 45 43 42 42 42 42 43 42 41 41 40 41 44 47 46 44 43 43 42 38 36 37 40 42 42 43 46 46 44 45 48 46 41 39 38 38 39 38 33 30 27 26 30 39 45 47 47 47 46 44 44 44 45 45 46 48 49 48 48 50 51 50 49 47 46 45 44 43 42 40 38 38 38 37 35 32 29 27 24 23 22 21 20 20
44 43 42 42 42 41 41 41 40 39 39 37 37 38 39 40 40 38 34 31 30 32 34 36 38 39 40 42 44 46 47 46 43 39 37 34 33 34 33 31 30 27 24 30 41 46 47 49 48 47 46 46 45 45 46 48 51 52 52 51 50 50 49 47 44 42 42 42 42 40 39 39 39 37 35 32 30 28 26 24 23 21 20 20 20
41 42 41 41 40 39 39 39 38 38 37 36 36 36 36 37 39 37 34 34 36 37 38 39 40 41 42 42 41 41 43 43 41 39 37 35 33 33 30 29 29 27 24 32 42 46 48 50 49 48 47 46 43 44 46 49 52 54 54 53 50 49 47 43 40 40 41 41 40 40 40 40 38 36 34 32 29 27 25 23 22 21 20 20 19
40 41 41 39 38 37 37 37 37 36 36 36 36 36 36 37 38 39 39 41 43 42 40 39 37 37 41 45 45 43 40 39 38 38 37 36 34 33 31 28 28 27 26 34 43 47 48 50 50 48 46 44 43 44 46 48 50 52 53 51 49 48 46 42 41 42 41 40 40 41 40 39 38 36 34 31 28 26 24 22 21 20 19 19 18
38 39 39 39 38 37 36 36 36 36 36 35 35 35 36 37 38 39 39 39 39 38 38 35 30 26 28 34 38 40 39 38 38 36 35 35 35 32 29 29 29 29 30 36 44 49 49 49 49 48 46 45 44 45 46 48 49 51 52 51 51 50 47 44 42 42 40 40 40 39 38 37 36 33 31 29 26 24 22 21 20 19 18 18 18
37 38 39 39 39 38 38 38 38 38 37 36 35 34 35 35 36 36 36 35 35 35 34 31 29 27 26 26 28 31 32 32 34 34 32 33 34 31 29 31 34 35 35 37 42 47 48 47 46 45 45 45 44 44 45 47 48 50 52 53 53 51 48 46 44 42 40 39 38 36 35 34 33 30 28 26 24 22 21 20 19 18 18 18 17
35 36 37 37 37 38 38 38 39 38 37 35 34 33 32 32 32 32 32 32 32 31 32 32 32 32 29 25 23 24 25 26 27 28 29 31 32 31 31 33 35 36 37 36 38 42 44 44 43 43 43 44 44 44 44 45 46 48 51 53 53 51 49 47 45 42 41 40 38 36 35 33 31 29 27 25 23 22 20 19 19 18 17 17 16
33 34 34 35 35 37 38 37 37 37 35 33 32 31 31 30 30 30 30 31 31 31 33 34 33 31 29 26 22 20 21 22 22 23 26 29 30 31 32 32 33 35 36 34 35 39 41 41 41 42 42 42 43 43 44 45 46 48 50 52 51 49 49 47 45 43 42 40 38 37 35 33 31 28 26 24 22 21 19 18 18 17 16 16 16
34 34 33 33 33 35 36 36 36 36 36 34 32 30 30 30 30 29 29 30 30 31 32 32 31 28 26 25 23 20 19 20 20 19 21 25 29 32 31 30 32 35 34 31 33 37 40 40 41 42 42 41 42 42 43 44 45 47 50 50 50 50 49 47 45 43 40 38 37 36 35 32 30 27 24 22 21 20 19 18 17 17 16 16 15
34 34 33 32 32 33 34 35 35 35 35 35 34 32 31 30 29 29 29 29 29 30 30 30 29 28 25 24 24 22 20 20 19 18 18 21 26 32 31 28 30 33 32 29 31 36 39 40 40 40 40 40 40 41 41 42 43 45 47 49 49 49 48 44 42 40 38 36 36 35 33 30 28 25 23 22 20 19 18 17 17 16 16 15 15
32 33 33 32 31 31 31 31 32 32 32 33 33 33 33 32 31 30 30 29 28 28 27 26 26 26 25 24 23 22 21 22 21 18 18 19 23 29 30 27 26 28 28 28 29 33 37 39 40 39 39 38 38 39 40 40 40 42 44 46 47 46 44 41 39 37 36 35 34 32 29 27 25 23 22 21 20 19 18 17 16 16 15 15 15
30 32 32 32 32 32 31 30 29 30 31 31 31 31 31 31 30 29 28 27 26 25 25 25 24 24 23 22 20 20 20 22 21 19 18 18 20 25 28 27 25 25 25 27 28 30 35 38 38 37 36 34 35 37 37 37 38 39 41 42 43 42 41 39 36 34 33 33 31 28 26 24 22 21 21 20 19 18 17 16 15 15 14 14 14
29 30 30 31 31 31 31 30 29 29 30 30 29 29 28 28 27 26 25 24 24 24 26 26 25 23 22 20 19 19 18 18 19 19 18 19 20 23 27 27 26 24 23 24 25 27 31 34 34 34 33 31 30 30 31 32 34 35 36 38 39 39 38 36 34 33 32 30 28 25 24 22 21 21 20 19 18 17 16 15 15 14 13 13 13
27 28 28 28 29 29 29 28 28 28 29 29 27 26 25 25 25 24 24 23 23 22 23 24 23 22 21 19 18 17 16 15 15 16 18 19 20 22 24 25 24 23 21 20 20 22 25 28 30 31 31 28 26 26 27 28 28 29 32 34 36 36 35 34 34 33 30 28 26 24 23 22 21 20 19 18 17 16 16 15 14 13 12 13 13
25 26 26 27 28 28 27 26 24 24 26 27 26 26 24 23 23 23 22 23 23 21 20 20 20 19 19 18 16 15 13 12 12 12 14 17 19 20 22 22 22 21 19 16 15 17 20 22 25 28 28 25 23 23 25 24 24 25 27 30 32 32 32 31 30 27 25 24 23 22 21 21 20 19 18 17 16 16 15 14 13 12 12 13 14
23 24 25 26 26 27 27 26 24 22 22 22 23 23 22 21 20 20 20 20 20 20 19 18 17 16 15 14 13 12 10 9 8 9 11 14 16 17 18 19 19 18 16 14 13 14 16 19 22 25 25 23 21 20 21 21 22 23 24 25 26 27 27 26 24 23 22 21 20 20 20 19 18 17 17 16 16 15 14 13 12 12 12 13 14
22 23 24 25 26 26 26 26 25 24 22 21 21 21 20 19 17 16 15 15 15 14 14 13 12 11 10 10 9 9 7 5 5 7 10 12 13 14 14 15 15 14 12 12 13 14 17 19 21 22 22 22 21 21 23 24 26 26 25 25 25 24 24 23 22 21 21 20 19 18 18 17 16 16 16 15 15 14 13 12 11 12 12 14 15
21 22 23 24 25 26 26 26 26 25 24 22 21 20 19 19 18 16 15 14 13 12 11 10 9 8 7 7 6 5 3 2 3 6 9 9 9 9 10 10 10 10 11 12 14 15 17 19 20 21 21 22 23 24 27 28 29 28 27 26 25 23 22 22 21 20 20 19 18 17 17 16 15 15 15 14 13 13 12 11 11 12 13 14 14
21 22 23 23 24 25 25 25 26 26 25 24 22 21 20 19 19 18 17 16 14 13 12 10 9 8 7 5 4 3 2 1 2 5 5 4 4 5 6 7 8 10 12 14 16 17 19 20 21 21 22 23 25 27 28 28 27 26 24 23 22 21 20 19 19 18 18 17 16 16 15 15 14 14 13 12 12 12 11 11 12 13 13 13 14
21 22 23 23 24 24 25 25 25 25 25 25 24 23 22 21 20 20 19 18 17 16 15 13 11 10 8 7 5 4 4 3 3 4 4 5 5 6 7 9 11 15 18 20 21 22 23 24 24 24 25 26 26 27 26 25 24 23 21 21 20 19 18 18 17 16 15 15 14 14 13 13 12 12 12 12 12 12 11 12 13 13 13 13 15
22 22 22 23 24 24 25 25 25 26 26 25 25 25 24 22 21 20 20 19 19 19 17 16 14 12 10 9 8 7 6 7 7 9 10 12 13 14 16 18 21 23 25 26 26 26 27 27 27 27 27 27 26 25 24 23 22 21 20 19 18 17 16 15 14 14 13 13 12 11 11 10 10 11 11 11 12 12 13 13 13 13 13 14 17
Wind_Direction
9 10 10 10 8 7 7 6 5 5 4 4 3 360 352 336 317 302 293 289 287 286 287 287 287 287 285 282 280 276 272 268 265 261 257 254 253 252 251 249 246 244 242 241 238 237 235 234 234 233 233 232 232 232 232 231 231 231 232 233 234 234 235 235 232 234 236 231 227 226 223 224 227 228 231 233 235 236 237 239 241 248 258 268 278
5 4 3 3 3 3 3 1 1 0 0 1 1 0 359 356 347 332 316 303 293 287 284 283 283 284 283 282 280 278 275 272 268 265 261 258 255 254 253 251 249 246 244 242 240 238 236 236 235 234 233 233 233 233 233 232 231 230 231 232 233 234 235 234 233 235 237 232 229 227 223 223 225 227 229 231 232 234 235 236 239 244 251 261 271
2 360 358 357 356 356 355 355 355 355 355 357 358 358 357 356 354 349 341 329 313 300 291 284 281 280 280 280 279 277 275 273 270 268 265 262 259 257 255 253 251 249 247 245 242 240 238 237 236 235 234 234 234 234 233 233 232 231 232 232 233 234 234 234 234 236 237 234 231 230 226 224 225 227 229 230 231 232 234 236 239 242 248 257 268
355 354 354 353 351 350 349 349 348 348 349 350 352 353 353 353 352 350 348 344 335 322 307 295 287 282 278 277 277 276 275 273 271 269 267 264 262 260 258 255 253 251 250 248 245 243 240 239 238 237 236 235 235 234 234 233 232 231 232 232 233 233 233 233 233 235 236 234 232 231 230 229 229 229 229 230 231 233 235 238 239 240 245 255 265
349 348 348 347 347 345 345 344 343 344 344 343 343 345 347 349 349 349 348 346 343 338 327 313 299 289 284 281 279 277 276 274 273 270 268 266 264 262 260 258 255 253 251 250 249 246 244 242 241 239 237 237 236 236 234 233 232 231 231 232 232 232 231 230 231 232 233 232 231 231 231 231 231 230 230 230 233 234 235 237 237 239 245 254 263
346 346 345 346 346 345 343 342 341 341 340 339 338 338 338 340 343 346 346 345 344 342 337 329 316 301 291 285 281 279 278 276 274 272 271 268 266 264 262 260 258 256 254 252 250 248 247 245 244 242 240 239 238 237 236 235 233 231 231 231 231 230 229 227 227 229 231 232 231 231 232 232 231 231 231 232 234 235 236 237 237 238 243 252 261
343 344 344 344 345 345 344 343 340 338 337 337 336 335 333 332 334 338 341 342 343 342 340 336 328 317 304 291 282 279 277 276 275 274 272 270 267 265 263 261 260 258 256 254 252 250 248 247 246 244 242 241 240 239 238 236 235 233 232 232 230 229 228 226 225 226 227 229 230 230 231 230 230 232 232 231 232 234 235 238 240 240 242 250 259
340 340 339 339 339 340 341 341 341 338 335 333 332 332 331 329 327 328 331 335 337 339 338 337 333 327 317 305 292 282 275 273 274 274 272 271 268 266 264 263 261 260 258 256 254 252 249 248 247 245 245 244 243 242 241 239 237 235 234 233 231 230 228 226 224 225 226 228 229 228 228 228 228 230 231 230 230 232 234 236 240 243 244 251 259
337 336 335 334 333 332 333 335 336 337 335 333 331 329 328 328 327 324 323 325 328 331 333 333 332 329 324 316 305 293 282 274 272 272 273 272 270 268 267 265 263 261 259 258 256 254 252 250 248 246 246 245 244 243 243 242 240 238 237 235 233 231 229 227 225 225 225 226 227 227 227 227 227 228 231 231 232 234 235 234 238 242 244 250 259
332 332 331 330 328 327 327 327 329 331 332 332 331 330 328 327 327 326 324 322 321 323 325 326 327 327 325 321 314 304 294 285 278 274 273 273 272 270 267 265 263 261 259 258 257 256 254 252 251 249 247 246 244 243 242 242 241 241 241 240 238 235 231 229 228 227 227 227 226 226 227 228 228 230 232 233 233 235 235 234 237 241 242 246 255
326 325 325 324 323 322 323 322 323 325 326 328 328 328 328 327 326 326 326 324 321 319 320 321 322 323 322 320 317 311 304 296 287 280 275 272 271 269 267 265 263 260 259 259 258 257 256 254 253 251 248 246 244 242 241 240 240 239 240 241 241 241 238 234 232 230 229 229 228 229 229 230 230 231 232 233 233 234 236 236 237 240 243 246 252
317 316 316 316 315 316 317 317 318 319 320 322 322 323 325 325 325 325 324 325 324 322 320 319 319 319 319 317 316 313 310 303 293 285 279 274 271 269 267 265 262 260 259 259 259 258 257 256 255 253 250 247 245 243 241 239 239 238 238 238 239 240 241 241 240 237 235 232 230 230 231 232 232 232 232 233 234 235 237 238 240 242 246 249 251
311 310 310 310 310 311 312 312 313 314 315 316 317 317 318 319 321 322 322 323 322 322 322 320 319 318 317 315 314 312 310 308 299 289 281 277 273 269 267 265 262 261 260 259 259 258 257 257 256 255 253 249 246 244 242 240 238 237 236 236 236 237 237 239 240 242 242 240 237 235 234 233 233 234 235 235 236 237 237 239 242 243 246 248 247
309 308 308 308 308 308 307 308 308 309 310 311 312 312 313 315 316 318 319 319 319 318 319 319 319 318 317 315 313 309 309 310 306 295 285 279 274 270 268 266 263 261 260 260 259 258 257 257 256 256 256 252 248 245 244 241 238 236 235 234 234 234 234 234 235 236 238 240 240 239 238 236 235 236 237 237 237 238 238 239 242 244 245 244 241
311 310 310 309 307 305 304 304 304 305 305 306 307 308 309 310 311 313 314 314 315 315 315 316 316 316 316 316 313 309 307 309 309 302 290 281 277 273 268 265 262 260 260 259 258 257 257 257 256 256 256 254 252 249 246 243 240 237 236 235 234 234 233 233 233 232 232 232 232 234 235 235 236 236 237 237 236 237 238 238 240 242 241 240 239
310 311 311 309 308 305 303 302 301 301 302 302 302 303 304 305 306 308 309 309 310 310 311 312 312 312 313 313 312 309 307 306 307 306 297 285 277 274 269 264 261 260 258 258 258 256 256 256 255 254 254 254 253 250 248 246 242 238 237 236 235 234 234 234 233 232 231 229 227 228 228 229 230 232 233 234 234 235 235 235 237 239 238 238 239
309 310 309 308 307 306 304 302 300 299 299 299 299 298 298 299 301 303 304 305 305 306 307 307 307 308 308 309 310 309 307 306 305 305 302 292 279 272 269 263 261 260 259 259 258 258 257 256 255 254 254 253 252 251 248 247 243 239 238 236 235 234 234 233 231 229 228 227 227 228 229 228 227 229 230 231 233 235 236 237 238 238 237 236 237
309 308 307 306 305 304 304 302 301 300 298 298 298 296 295 295 296 297 299 300 301 302 303 303 302 303 304 305 306 306 305 306 305 303 302 297 284 272 268 265 262 261 260 260 259 258 258 256 254 253 253 252 252 251 249 246 243 238 236 235 234 233 233 231 228 225 223 223 224 226 228 229 228 229 229 231 233 236 237 238 237 235 234 235 236
308 307 305 304 303 302 301 300 300 299 298 297 296 295 294 293 293 293 294 295 296 297 299 300 299 299 299 300 302 303 302 303 304 302 300 298 289 276 269 265 262 260 259 258 257 257 257 256 253 251 252 252 251 250 247 246 243 239 236 234 234 233 232 230 227 224 222 221 223 224 227 228 228 229 230 230 234 237 236 235 234 232 232 235 236
307 305 303 302 301 300 299 298 297 297 296 296 295 294 293 293 292 291 291 291 291 292 293 295 296 295 296 296 297 298 299 300 301 302 299 296 291 281 270 263 261 259 258 256 255 254 254 254 252 251 251 250 249 248 247 245 244 240 236 235 236 236 233 229 226 224 224 224 224 224 225 226 227 228 227 226 231 235 235 232 231 230 231 234 236
303 302 300 299 298 297 296 295 295 294 294 293 293 292 291 291 290 289 289 288 288 289 289 290 291 292 292 293 292 293 295 296 298 299 298 294 291 284 273 264 260 259 258 255 253 253 252 252 252 251 250 249 248 247 245 244 243 240 238 238 239 238 234 229 227 225 225 225 224 222 222 223 225 226 225 225 230 235 235 231 229 230 230 233 236
299 298 297 296 294 294 293 292 292 291 291 290 290 289 288 288 288 287 287 286 286 286 285 286 287 288 288 290 290 290 291 293 294 295 295 293 290 284 277 269 262 259 257 255 252 251 252 252 252 251 251 251 250 248 246 243 240 240 240 239 238 236 232 229 227 224 222 222 221 219 220 222 224 225 225 227 231 234 232 229 229 230 231 232 236
297 296 294 293 292 291 291 290 289 289 288 288 288 287 286 285 285 284 284 285 285 284 283 283 284 285 285 286 288 288 288 289 290 292 293 292 289 284 279 274 266 259 256 254 252 251 251 252 252 253 252 251 250 249 246 241 236 236 237 236 233 232 230 227 225 223 221 219 218 218 219 222 223 224 226 230 232 231 228 228 229 229 231 233 236
296 294 292 291 290 290 290 289 288 288 287 287 288 287 286 286 285 284 284 284 284 283 282 281 281 282 282 283 284 286 287 287 288 289 290 290 288 283 279 275 269 260 254 253 253 253 252 251 252 253 252 251 249 248 245 240 233 230 231 232 229 227 226 224 222 221 219 217 216 217 219 222 225 226 229 232 231 227 225 227 229 228 231 234 237
295 293 291 290 289 288 288 288 288 287 287 287 287 287 286 286 286 285 284 284 283 282 281 280 279 279 280 280 281 282 284 285 286 286 287 287 286 282 278 274 269 261 253 250 252 253 253 252 251 250 251 250 247 243 239 235 228 223 225 227 225 223 223 222 220 218 217 216 216 218 221 223 225 227 230 230 227 223 223 225 227 228 231 234 237
294 292 290 289 288 288 288 288 288 288 288 288 288 288 287 288 288 287 286 285 283 282 280 280 279 278 278 277 278 279 280 282 283 284 284 283 283 282 277 273 270 262 252 249 250 252 252 252 249 247 246 245 241 236 233 230 223 217 220 223 222 222 222 221 218 217 217 217 219 221 222 223 224 226 226 223 220 220 221 222 224 228 231 234 239
295 293 292 291 290 290 290 290 290 290 290 291 290 289 289 289 288 287 286 285 284 282 281 279 278 278 277 277 276 276 277 278 279 280 280 280 282 282 277 272 269 261 250 244 246 249 249 248 248 245 243 241 238 235 235 230 220 214 217 220 222 224 224 222 220 220 220 221 222 222 221 221 223 223 220 217 216 218 218 219 223 227 230 234 238
300 298 297 297 297 296 296 296 296 295 295 294 293 291 289 289 288 285 284 284 283 281 280 278 276 274 274 275 275 275 275 275 275 276 277 278 281 282 276 269 267 262 252 241 240 243 244 243 242 240 237 234 229 227 228 225 217 214 215 217 219 222 222 220 220 221 221 221 220 219 219 219 219 217 215 214 214 214 214 217 221 225 230 234 239
305 303 303 303 302 302 301 300 299 299 298 296 295 293 291 291 290 288 286 286 285 283 280 278 277 274 271 270 270 271 272 272 273 275 276 276 277 277 272 265 264 264 257 243 235 235 236 235 235 233 229 224 217 214 215 215 213 213 212 210 213 216 216 214 214 215 216 217 217 217 218 217 215 212 212 212 211 211 212 215 219 224 229 235 239
307 304 303 301 299 299 298 296 296 296 294 294 294 294 293 293 291 289 289 289 288 283 277 273 272 269 266 264 265 265 267 269 271 274 275 274 274 272 267 260 258 260 256 243 234 231 230 228 228 227 224 218 212 208 207 206 207 209 208 205 208 212 211 210 211 212 213 215 217 217 217 214 212 210 209 208 207 208 210 213 217 222 229 236 241
305 301 300 298 297 296 295 293 293 292 290 289 289 290 291 291 289 288 289 289 285 279 273 270 269 266 263 262 263 263 263 265 267 267 267 268 268 267 262 257 253 254 248 236 230 229 227 227 226 224 221 218 213 208 204 202 203 205 203 202 205 209 210 209 209 212 214 215 215 215 214 212 210 208 206 205 205 207 208 212 217 222 229 236 242
305 301 299 298 297 295 293 292 291 290 289 288 287 286 288 288 287 288 286 280 274 268 264 262 262 262 261 260 261 263 263 262 262 261 259 258 257 258 258 255 252 251 240 228 228 228 227 226 225 223 221 219 213 207 202 200 201 203 203 202 202 205 209 210 211 212 214 213 211 210 209 208 206 204 203 204 205 207 209 213 219 223 230 236 240
307 304 302 299 296 295 293 292 290 289 288 287 286 286 285 284 286 288 284 279 277 274 268 262 257 255 253 251 252 255 258 260 260 258 255 253 251 251 253 251 248 243 231 223 226 228 227 226 225 224 222 218 211 205 203 202 203 204 206 206 204 204 207 210 211 211 211 210 208 206 205 204 202 200 201 203 205 208 211 215 219 224 229 235 240
308 307 305 301 297 294 292 291 289 287 287 286 284 284 282 281 282 284 285 286 290 290 286 281 274 264 257 252 249 249 252 256 258 256 253 252 250 250 251 250 244 236 225 221 223 224 224 224 224 224 220 213 207 205 205 205 205 206 207 206 204 202 201 204 208 209 207 205 204 204 203 201 199 200 201 201 203 207 210 214 219 224 230 236 241
309 308 308 306 301 297 295 293 290 288 286 284 283 282 281 281 282 282 283 286 289 291 293 294 291 283 274 265 258 255 255 256 255 254 252 249 247 247 247 244 237 229 221 219 221 223 224 224 224 221 215 209 207 208 207 206 205 205 205 204 202 199 197 200 205 207 204 201 201 201 200 199 199 199 200 201 203 207 210 214 220 226 231 237 241
311 310 310 310 307 304 302 301 298 295 292 288 285 283 282 282 282 282 283 283 284 287 292 296 293 287 285 281 271 263 260 257 253 250 248 245 241 238 235 235 232 226 220 218 219 221 224 226 224 218 212 209 210 210 208 207 207 207 207 207 206 203 201 202 205 205 202 201 202 202 199 199 199 199 200 201 203 206 210 215 221 225 230 236 243
312 311 310 311 311 311 309 307 304 302 297 291 286 284 283 282 282 282 282 283 284 285 287 291 289 283 280 282 279 269 262 259 255 249 245 242 236 230 230 232 231 227 223 219 216 216 218 219 217 213 211 211 211 210 209 208 207 206 207 209 210 209 207 207 208 206 203 202 203 203 200 200 200 200 201 202 203 206 210 214 219 225 231 237 245
313 312 312 313 315 313 310 306 304 302 298 291 285 283 282 283 283 282 281 283 285 285 286 291 294 289 282 281 283 276 269 270 267 256 246 239 229 224 228 233 230 227 225 222 216 214 213 213 212 212 212 212 212 211 210 208 206 206 207 209 210 209 209 209 208 206 204 203 202 200 199 199 199 200 201 201 203 206 210 213 220 226 232 239 248
318 316 315 318 319 315 311 307 305 304 301 296 291 286 283 282 282 281 281 282 285 287 291 295 297 294 287 282 281 280 278 279 275 263 252 242 227 221 226 232 231 228 226 223 219 215 210 209 211 213 213 212 211 211 211 211 210 210 211 210 209 207 208 207 206 204 203 202 199 196 196 197 198 198 198 200 203 206 209 214 220 227 234 243 252
323 320 320 322 322 319 316 312 309 307 304 302 299 295 290 287 286 284 283 285 285 286 288 288 287 289 289 283 281 282 282 281 278 270 262 251 232 223 226 232 233 231 228 224 220 216 211 209 210 211 211 211 211 212 214 215 214 214 214 212 210 209 208 206 205 204 202 200 197 196 195 195 195 194 196 200 203 207 211 216 222 229 237 246 254
327 325 326 327 327 325 322 319 316 315 313 310 307 304 300 298 297 294 293 292 291 290 290 288 288 291 291 284 281 281 278 276 275 270 263 257 243 232 230 233 234 232 229 225 221 216 211 209 208 207 208 211 213 215 217 217 216 216 215 212 210 209 207 205 204 203 200 196 195 194 192 191 192 193 196 200 203 207 212 218 224 233 242 249 258
333 331 330 331 331 329 328 328 329 327 324 319 316 313 309 307 304 301 298 297 298 300 301 298 296 296 293 287 285 285 279 274 271 266 262 259 246 232 228 229 232 231 230 227 224 219 213 210 207 207 211 216 219 220 220 219 218 217 214 211 209 207 205 203 202 199 196 193 192 191 190 190 191 193 196 201 205 209 215 221 227 236 246 255 264
338 335 333 332 333 332 331 333 336 336 333 329 325 322 318 315 311 308 306 303 302 301 301 300 300 299 297 293 292 292 286 276 268 262 257 253 242 228 223 225 229 231 232 233 230 225 219 213 210 212 217 221 224 226 225 223 221 218 213 210 208 206 203 199 195 192 191 190 189 189 189 190 192 195 199 204 208 212 218 225 232 241 251 260 269
341 340 340 341 342 341 339 337 338 339 339 338 335 332 329 323 319 315 313 311 309 304 299 299 299 298 297 298 299 298 291 279 269 261 254 248 240 230 224 226 230 234 238 239 235 228 222 217 216 218 218 217 220 224 224 223 223 219 212 206 203 199 197 194 191 189 188 187 186 188 190 192 195 198 202 206 211 216 222 229 237 247 257 266 273
349 349 350 350 350 349 347 345 345 346 345 343 342 341 340 336 331 328 324 320 320 319 314 308 303 299 297 299 300 298 292 282 275 266 254 244 237 229 226 228 232 236 240 240 233 226 221 219 220 219 213 208 210 216 217 215 212 209 204 200 195 192 190 189 187 186 185 186 187 190 192 194 197 202 205 209 214 220 226 232 242 252 261 271 278
360 1 360 358 357 357 355 354 353 354 354 351 347 345 345 343 339 336 329 323 321 320 316 311 307 305 304 302 299 298 296 289 276 259 241 233 231 229 228 230 232 235 237 234 225 219 217 217 216 212 204 198 200 204 200 191 186 185 186 186 185 184 182 180 180 180 182 186 190 192 194 197 200 204 209 214 219 224 229 237 248 258 268 276 281
10 11 9 7 6 5 4 2 1 1 2 1 357 354 352 348 343 338 333 328 325 322 318 315 314 314 314 312 308 305 301 287 259 234 223 221 222 223 224 227 230 231 228 217 209 208 207 205 202 197 192 189 187 182 174 169 168 169 170 171 173 175 175 174 176 178 181 186 190 193 196 201 203 207 214 218 221 227 235 242 253 266 274 277 280
18 19 18 17 16 14 12 12 11 9 7 7 7 6 4 2 359 356 353 349 346 344 341 337 335 332 329 329 330 327 317 273 224 210 208 211 215 217 219 219 217 213 204 196 193 192 188 184 182 181 180 178 172 166 163 163 164 165 166 167 169 171 172 173 176 179 182 187 191 194 199 204 207 212 219 222 225 234 242 249 261 271 274 275 281
23 25 25 25 25 23 21 20 19 17 15 14 13 14 16 16 15 13 10 7 7 6 4 1 359 357 356 0 11 29 56 130 191 191 189 193 200 201 201 196 189 183 177 171 168 165 163 163 165 165 164 162 160 159 160 162 162 164 165 166 166 167 169 172 176 181 184 189 193 196 201 207 211 216 222 226 231 241 249 256 266 271 271 276 287
26 30 31 31 31 31 30 29 27 26 25 24 22 20 21 22 24 25 24 23 22 21 19 18 18 18 20 29 45 68 90 109 127 127 111 100 108 126 137 144 150 151 149 145 144 144 146 149 150 151 151 152 153 155 156 158 159 160 161 161 163 166 170 173 176 180 184 188 193 198 203 209 214 220 227 231 237 246 254 260 266 270 274 283 294
27 32 35 36 36 36 36 36 35 34 33 32 30 28 26 26 27 30 33 34 35 34 32 31 31 32 37 46 57 69 84 94 99 99 100 104 111 119 125 130 134 136 136 136 136 138 140 141 143 145 146 148 150 152 153 154 155 156 157 159 162 165 168 170 174 179 183 189 195 200 206 213 220 226 232 236 240 247 255 261 266 272 281 290 295